Hourly Data Report for October 30, 2013

All times are specified in Local Standard Time (LST). Add 1 hour to adjust for Daylight Saving Time where and when it is observed.

GRISE FIORD CLIMATE
NUNAVUT

76°25'22.040" N
82°54'08.020" W
44.50 m
2402351
71971
NGC

Download Data

Hourly Data (October 2013)
Hourly Data Report for October 30, 2013
Temp Definition
°C
Dew Point Temp Definition
°C
Rel Hum Definition
%
Wind Dir Definition
10's deg

Wind Spd Definition
km/h
Visibility Definition
km
Stn Press Definition
kPa
Hmdx Definition


Wind Chill Definition


Weather Definition


TIME
00:00 -17.9 -19.2 90 3 6   100.60   -23 LegendNANA
01:00 -18.6 -20.1 88 5 11   100.60   -26 LegendNANA
02:00 -18.5 -20.0 88 5 6   100.63   -23 LegendNANA
03:00 -17.9 -19.3 89 4 4   100.66   -21 LegendNANA
04:00 -17.7 -18.9 90 1 4   100.66   -21 LegendNANA
05:00 -18.0 -19.3 90 1 4   100.68   -21 LegendNANA
06:00 -18.1 -19.4 90 2 4   100.68   -21 LegendNANA
07:00 -18.3 -19.7 89 1 2   100.69   -20 LegendNANA
08:00 -18.6 -20.1 88 4 2   100.71   -20 LegendNANA
09:00 -18.1 -19.5 89 7 4   100.69   -21 LegendNANA
10:00 -17.9 -19.4 88 6 4   100.69   -21 LegendNANA
11:00 -17.6 -19.0 89 13 2   100.70   -19 LegendNANA
12:00 -17.1 -18.5 89 15 6   100.72   -22 LegendNANA
13:00 -16.8 -18.2 89 3 4   100.74   -20 LegendNANA
14:00 -16.3 -17.7 89 14 4   100.75   -19 LegendNANA
15:00 -16.2 -17.7 88 4 4   100.77   -19 LegendNANA
16:00 -16.1 -17.5 89   0   100.81     LegendNANA
17:00 -15.9 -17.3 89   0   100.83     LegendNANA
18:00 -15.9 -17.6 87 25 4   100.87   -19 LegendNANA
19:00 -16.2 -17.7 88 9 2   100.89   -18 LegendNANA
20:00 -16.2 -17.8 87   0   100.89     LegendNANA
21:00 -16.0 -17.6 87 12 2   100.88   -17 LegendNANA
22:00 -16.0 -17.8 86 11 7   100.89   -21 LegendNANA
23:00 -15.0 -18.0 78 36 9   100.90   -21 LegendNANA

Notes on Data Quality.

Legend

  • E = Estimated
  • M = Missing
  • NA = Not Available
  • ‡ = Partner data that is not subject to review by the National Climate Archives
Date modified: